Location: Unspecified
(43.4680°N, 87.1740°E)
Time: 21:45:43
(UTC+00:00)

ADEOS Rocket - Pass Details

Date: 17 April 2021
Orbit: 859 x 1306 km, 98.7° (Epoch: 11 May)

Event Time Altitude Azimuth Distance (km) Brightness Sun altitude
Exits shadow 19:56:33 13° 125° (SE) 2,598 5.2 -30.6°
Maximum altitude 20:01:40 37° 63° (ENE) 1,619 4.5 -30.2°
Drops below altitude 10° 20:07:56 10° 360° (N) 3,080 6.3 -29.5°
Sets 20:10:52 0° 353° (N) 4,109 6.9 -29.3°
